sat.trackr.live / text

‹ back to catalog

STARLINK-31561

NORAD 59352 · 2024-060E

PAYLOAD ACTIVE UNKNOWN

§ Identity

Operator
Country
US
Launch date
2024-03-31
Launch site
AFETR
Launch vehicle
Mass (kg)
RCS (m²)

Purposes: comms

External: N2YO · Heavens-Above · Gunter

§ Orbital elements

Epoch: 2026-05-25T03:57:51.234048Z

Period
94.27 min
Inclination
43.0019°
Eccentricity
0.0001216
Mean motion
15.27576798 rev/d
Perigee alt
482.2 km
Apogee alt
483.9 km
Semi-major
6,861.2 km
B*
6.3696e-5
RAAN
187.5486°
Arg perigee
279.3320°
Mean anomaly
80.7394°
Rev number
12,176

§ Raw data

STARLINK-315611 59352U 24060E   26145.16517632  .00001491  00000+0  63696-4 0  99932 59352  43.0019 187.5486 0001216 279.3320  80.7394 15.27576798121763

JSON: /api/v1/satellites/59352 · /tle

For live sub-satellite position, see the globe view (requires WebGL).

§ Visibility from observer

Set your observer location to see the next 7 days of passes ≥ 10°. The values pass through the URL so the page stays shareable.

No JS? Fill the form by hand. The geolocation button needs JavaScript.